Fresno, CA

12:07 PM PDT on July 21, 2017 (GMT -0700)
Fresno Yosemite International

Weather History for KFAT - July, 2013

Change the Weather History Date:

Wednesday, July 17, 2013

  Actual Average Record
Temperature  
Mean Temperature 78 °F 84 °F  
Max Temperature 95 °F 99 °F 114 °F (1925)
Min Temperature 61 °F 68 °F 56 °F (1987)
Degree Days  
Heating Degree Days 0    
Month to date heating degree days 0  
Since 1 June heating degree days 0  
Since 1 July heating degree days 0  
Cooling Degree Days 13    
Month to date cooling degree days 384  
Year to date cooling degree days 1274  
Since 1 June cooling degree days 867  
Growing Degree Days 28 (Base 50)    
Moisture  
Dew Point 52 °F    
Average Humidity 47    
Maximum Humidity 72    
Minimum Humidity 21    
Precipitation  
Precipitation 0.00 in 0.00 in 0.01 in (1995)
Month to date precipitation 0.00 0.01  
Year to date precipitation 2.28 7.85  
Since 1 July precipitation 0.00  
Snow  
Snow 0.00 in - - ()
Month to date snowfall 0.0  
Since 1 June snowfall 0.0  
Since 1 July snowfall 0.0  
Snow Depth 0.00 in    
Sea Level Pressure  
Sea Level Pressure 29.99 in    
Wind  
Wind Speed 6 mph (NW)    
Max Wind Speed 14 mph    
Max Gust Speed 16 mph    
Visibility 10 miles    
Events      
T = Trace of Precipitation, MM = Missing Value Source: NWS Daily Summary

Daily Weather History Graph

Daily Weather History Graph

Search for Another Location

Airport or City:

Trip Planner

Search our weather history database for the weather conditions in past years. The results will help you decide how hot, cold, wet, or windy it might be!

Date:

Astronomy

Jul. 17, 2013 Rise Set
Actual Time 5:53 AM PDT 8:16 PM PDT
Civil Twilight 5:23 AM PDT 8:46 PM PDT
Nautical Twilight 4:46 AM PDT 9:22 PM PDT
Astronomical Twilight 4:06 AM PDT 10:02 PM PDT
Moon 3:13 PM PDT (7/17) 1:00 AM PDT (7/17)
Length of Visible Light 15h 22m
Length of Day
14h 23m
Waxing Gibbous, 68% of the Moon is Illuminated
Jul 17
Waxing Gibbous
Jul 22
Full
Jul 29
Last Quarter
Aug 6
New
Aug 14
First Quarter

Hourly Weather History & Observations

Time (PDT) Temp. Heat Index Dew Point Humidity Pressure Visibility Wind Dir Wind Speed Gust Speed Precip Events Conditions
12:53 AM 70.0 °F - 54.0 °F 57% 29.94 in 10.0 mi NW 11.5 mph - N/A   Clear
1:53 AM 68.0 °F - 54.0 °F 61% 29.95 in 10.0 mi NW 8.1 mph - N/A   Clear
2:53 AM 66.0 °F - 53.1 °F 63% 29.96 in 10.0 mi NW 12.7 mph - N/A   Clear
3:53 AM 64.0 °F - 53.1 °F 67% 29.96 in 10.0 mi NNW 10.4 mph - N/A   Clear
4:53 AM 63.0 °F - 53.1 °F 70% 29.97 in 10.0 mi NW 9.2 mph - N/A   Clear
5:53 AM 62.1 °F - 53.1 °F 72% 29.99 in 10.0 mi NW 6.9 mph - N/A   Clear
6:53 AM 62.1 °F - 53.1 °F 72% 30.01 in 10.0 mi NW 8.1 mph - N/A   Clear
7:53 AM 64.9 °F - 54.0 °F 68% 30.03 in 10.0 mi NW 4.6 mph - N/A   Clear
8:53 AM 66.9 °F - 54.0 °F 63% 30.05 in 10.0 mi Calm Calm - N/A   Clear
9:53 AM 71.1 °F - 54.0 °F 55% 30.05 in 10.0 mi Calm Calm - N/A   Clear
10:53 AM 75.0 °F - 54.0 °F 48% 30.04 in 10.0 mi Calm Calm - N/A   Clear
11:53 AM 81.0 °F 80.4 °F 53.1 °F 38% 30.03 in 10.0 mi Calm Calm - N/A   Clear
12:53 PM 84.9 °F 83.2 °F 53.1 °F 33% 30.02 in 10.0 mi Variable 3.5 mph - N/A   Clear
1:53 PM 89.1 °F - 51.1 °F 27% 30.01 in 10.0 mi WNW 5.8 mph - N/A   Clear
2:53 PM 91.9 °F - 46.9 °F 21% 29.99 in 10.0 mi Variable 6.9 mph - N/A   Clear
3:53 PM 93.0 °F - 50.0 °F 23% 29.98 in 10.0 mi NNW 6.9 mph - N/A   Clear
4:53 PM 93.9 °F - 48.9 °F 21% 29.96 in 10.0 mi WNW 11.5 mph - N/A   Clear
5:53 PM 95.0 °F - 44.1 °F 17% 29.94 in 10.0 mi NW 8.1 mph - N/A   Clear
6:53 PM 93.0 °F - 46.0 °F 20% 29.94 in 10.0 mi WNW 13.8 mph - N/A   Clear
7:53 PM 90.0 °F - 48.9 °F 24% 29.94 in 10.0 mi WNW 12.7 mph - N/A   Clear
8:53 PM 86.0 °F 84.2 °F 54.0 °F 33% 29.95 in 10.0 mi WNW 11.5 mph - N/A   Clear
9:53 PM 84.0 °F 82.6 °F 54.0 °F 35% 29.97 in 10.0 mi NW 9.2 mph - N/A   Clear
10:53 PM 81.0 °F - 51.1 °F 35% 29.98 in 10.0 mi NNW 9.2 mph - N/A   Clear
11:53 PM 79.0 °F - 50.0 °F 36% 29.98 in 10.0 mi WNW 8.1 mph - N/A   Clear